Flag for Slovakia Weather past 2 weeks in Bratislava, Slovakia

Now
79 °F

Passing clouds.


Feels Like: 79 °F
Forecast: 64 / 89 °F
Wind: 7 mph from Southeast

Location: Bratislava Ivanka

Current Time: Jul 3, 2015 at 10:32:33 AM

Latest Report: Jul 3, 2015 at 10:00 AM


Visibility: N/A

Pressure: 30.33 "Hg

Humidity: 39%

Dew point: 52 °F

Location of BratislavaLocation

Historic Weather in Bratislava — Graph

°F

Bratislava temperature yesterday

Maximum temperature yesterday: 88 °F (at 3:00 PM)
Minimum temperature yesterday: 63 °F (at 4:30 AM)
Average temperature yesterday: 77 °F

Past Weeks' High & Low Weather Summary

 TemperatureHumidityPressure
High88 °F (Jul 1, 3:30 PM)94% (Jun 23, 1:30 AM)30.33 "Hg (Jun 23, 1:30 AM)
Low50 °F (Jun 21, 5:00 AM)26% (Jun 30, 4:00 PM)29.77 "Hg (Jun 23, 4:00 AM)
Average66 °F59%30.07 "Hg
* Reported Jun 18 9:00 AM — Jul 3 9:30 AM, Bratislava, Weather by CustomWeather, © 2015

Note: Actual official high and low records may vary slightly from our data, if they occured in-between our weather recording intervals... More about our weather records

Advertising

Bratislava weather history for previous 24 hours

 ConditionsComfort  
Time TempWeatherWind HumidityBarometerVisibility
9:30 AM
Fri, Jul 3
77 °FPassing clouds.5 mph39%30.33 "HgN/A
9:00 AM73 °FPassing clouds.5 mph47%30.33 "HgN/A
8:30 AM73 °FPassing clouds.5 mph47%30.33 "HgN/A
8:00 AM72 °FPassing clouds.7 mph50%30.33 "HgN/A
7:30 AM70 °FSunny.7 mph53%30.33 "Hg10 mi
7:00 AM70 °FSunny.5 mph57%30.33 "Hg10 mi
6:30 AM66 °FSunny.5 mph64%30.33 "Hg10 mi
6:00 AM63 °FSunny.7 mph73%30.33 "Hg10 mi
5:30 AM63 °FClear.8 mph73%30.30 "Hg10 mi
5:00 AM64 °FClear.8 mph68%30.30 "Hg10 mi
4:30 AM64 °FClear.7 mph68%30.30 "Hg10 mi
4:00 AM66 °FClear.6 mph64%30.30 "Hg10 mi
3:30 AM68 °FClear.8 mph64%30.30 "Hg10 mi
3:00 AM68 °FClear.8 mph69%30.30 "Hg10 mi
2:30 AM66 °FClear.8 mph73%30.30 "Hg10 mi
2:00 AM66 °FClear.9 mph73%30.27 "Hg10 mi
1:30 AM68 °FClear.8 mph69%30.27 "Hg10 mi
1:00 AM66 °FClear.6 mph73%30.27 "Hg10 mi
12:30 AM68 °FClear.6 mph69%30.24 "Hg10 mi
12:00 AM68 °FClear.3 mph73%30.24 "Hg10 mi
11:30 PM
Thu, Jul 2
70 °FClear.7 mph69%30.24 "Hg10 mi
11:00 PM72 °FClear.3 mph65%30.24 "Hg10 mi
10:30 PM73 °FClear.5 mph61%30.24 "Hg10 mi
10:00 PM77 °FClear.1 mph51%30.21 "Hg10 mi
9:30 PM79 °FSunny.3 mph48%30.21 "Hg10 mi
9:00 PM81 °FSunny.3 mph48%30.21 "Hg10 mi
8:30 PM81 °FSunny.3 mph45%30.18 "Hg10 mi
8:00 PM84 °FSunny.3 mph40%30.18 "Hg10 mi
7:30 PM86 °FSunny.3 mph35%30.18 "Hg10 mi
7:00 PM84 °FSunny.3 mph37%30.18 "Hg10 mi
6:30 PM86 °FSunny.2 mph31%30.18 "Hg10 mi
6:00 PM88 °FSunny.2 mph29%30.18 "Hg10 mi
5:30 PM86 °FPassing clouds.5 mph33%30.18 "HgN/A
5:00 PM88 °FPassing clouds.5 mph29%30.18 "HgN/A
4:30 PM88 °FSunny.6 mph29%30.18 "Hg10 mi
4:00 PM88 °FPassing clouds.5 mph29%30.18 "HgN/A
3:30 PM88 °FPassing clouds.7 mph31%30.18 "HgN/A
3:00 PM88 °FSunny.3 mph29%30.18 "Hg10 mi
2:30 PM86 °FPassing clouds.8 mph33%30.18 "HgN/A
2:00 PM86 °FSunny.3 mph33%30.21 "Hg10 mi
1:30 PM86 °FPassing clouds.3 mph33%30.21 "HgN/A
1:00 PM86 °FSunny.7 mph33%30.21 "Hg10 mi
12:30 PM84 °FPassing clouds.7 mph35%30.21 "HgN/A
12:00 PM84 °FPassing clouds.8 mph37%30.21 "HgN/A
11:30 AM81 °FPassing clouds.7 mph39%30.21 "HgN/A
11:00 AM81 °FPassing clouds.8 mph39%30.21 "HgN/A
10:30 AM79 °FPassing clouds.9 mph45%30.21 "HgN/A
10:00 AM77 °FPassing clouds.9 mph44%30.21 "HgN/A
Weather by CustomWeather, © 2015

See weather overviewHow to use our weather pages